Location: *
(44.3683°N, 6.6958°E)
Time: 05:52:56
(UTC+00:00)

Cosmos 1939 Rocket - Pass Details

Date: 14 October 2019
Orbit: 533 x 584 km, 97.4° (Epoch: 16 November)

Event Time Altitude Azimuth Distance (km) Brightness Sun altitude
Exits shadow 17:58:46 - 150° (SSE) 2,525 5.9 -12.8°
Reaches altitude 10° 18:00:30 10° 145° (SE) 1,818 5.1 -13.1°
Maximum altitude 18:04:15 45° 72° (ENE) 767 3.1 -13.8°
Drops below altitude 10° 18:08:06 10° 360° (N) 1,862 5.5 -14.5°
Sets 18:10:19 0° 354° (N) 2,772 6.5 -14.9°
